Flag for Japan Weather past 2 weeks in Yokosuka, Japan

Now
46 °F

Sprinkles. Broken clouds.


Feels Like: 43 °F
Forecast: 47 / 53 °F
Wind: 7 mph from Northeast

Location: Tokyo International Airport

Current Time: Dec 20, 2014 at 3:20:58 PM

Latest Report: Dec 20, 2014 at 3:00 PM


Visibility: 6 mi

Pressure: 29.92 "Hg

Humidity: 71%

Dew point: 37 °F

Location of YokosukaLocation

Historic Weather in Yokosuka — Graph

°F

Yokosuka temperature yesterday

Maximum temperature yesterday: 46 °F (at 12:00 PM)
Minimum temperature yesterday: 36 °F (at 4:00 AM)
Average temperature yesterday: 43 °F

Past Weeks' High & Low Weather Summary

 TemperatureHumidityPressure
High63 °F (Dec 11, 1:30 PM)93% (Dec 16, 2:47 PM)30.45 "Hg (Dec 16, 2:47 PM)
Low34 °F (Dec 18, 2:00 AM)18% (Dec 18, 2:00 PM)29.24 "Hg (Dec 16, 7:30 PM)
Average45 °F51%29.98 "Hg
* Reported Dec 5 2:00 PM — Dec 20 2:00 PM, Yokosuka, Weather by CustomWeather, © 2014

Note: Actual official high and low records may vary slightly from our data, if they occured in-between our weather recording intervals... More about our weather records

Advertising

Yokosuka weather history for previous 24 hours

 ConditionsComfort  
Time TempWeatherWind HumidityBarometerVisibility
2:00 PM
Dec 20
46 °FLight rain. Broken clouds.7 mph66%29.98 "Hg6 mi
1:30 PM46 °FLight rain. Broken clouds.8 mph66%29.98 "HgN/A
1:00 PM46 °FLight rain. Partly sunny.5 mph66%30.04 "Hg6 mi
12:30 PM46 °FLight rain. Partly sunny.7 mph66%30.07 "Hg6 mi
12:00 PM46 °FLight rain. Broken clouds.3 mph66%30.09 "HgN/A
11:30 AM46 °FLight rain. Broken clouds.5 mph62%30.09 "HgN/A
11:00 AM46 °FLight rain. Partly sunny.6 mph62%30.15 "Hg5 mi
10:30 AM46 °FLight rain. Broken clouds.6 mph66%30.18 "HgN/A
10:00 AM46 °FLight rain. Partly sunny.6 mph62%30.18 "HgN/A
9:30 AM45 °FPartly sunny.8 mph71%30.21 "HgN/A
9:00 AM48 °FPartly sunny.6 mph66%30.21 "HgN/A
8:30 AM48 °FPartly sunny.9 mph62%30.21 "HgN/A
8:00 AM45 °FPartly sunny.6 mph71%30.24 "HgN/A
7:30 AM43 °FBroken clouds.2 mph66%30.24 "HgN/A
7:00 AM43 °FPartly sunny.6 mph61%30.27 "HgN/A
6:30 AM43 °FPassing clouds.5 mph53%30.27 "HgN/A
6:00 AM43 °FPassing clouds.3 mph53%30.27 "HgN/A
5:30 AM43 °FPartly cloudy.6 mph57%30.27 "HgN/A
5:00 AM43 °FPartly cloudy.7 mph53%30.27 "HgN/A
4:30 AM43 °FPartly cloudy.7 mph53%30.30 "HgN/A
4:00 AM41 °FPartly cloudy.6 mph53%30.30 "HgN/A
3:30 AM41 °FPassing clouds.7 mph53%30.30 "HgN/A
3:00 AM43 °FPassing clouds.8 mph53%30.33 "HgN/A
2:30 AM43 °FPassing clouds.5 mph49%30.33 "HgN/A
2:00 AM43 °FPassing clouds.8 mph53%30.33 "HgN/A
1:30 AM43 °FPassing clouds.8 mph53%30.33 "HgN/A
1:00 AM43 °FPassing clouds.8 mph57%30.33 "HgN/A
12:30 AM43 °FPartly cloudy.7 mph61%30.33 "HgN/A
12:00 AM43 °FPassing clouds.7 mph66%30.33 "HgN/A
11:30 PM
Dec 19
45 °FPassing clouds.6 mph66%30.36 "HgN/A
11:00 PM46 °FPassing clouds.3 mph62%30.36 "HgN/A
10:30 PM45 °FPartly cloudy.8 mph61%30.36 "HgN/A
10:00 PM46 °FPassing clouds.8 mph57%30.39 "HgN/A
9:30 PM45 °FPassing clouds.12 mph61%30.36 "HgN/A
9:00 PM45 °FPassing clouds.14 mph61%30.39 "HgN/A
8:30 PM45 °FPassing clouds.13 mph57%30.39 "HgN/A
8:00 PM45 °FPassing clouds.14 mph53%30.39 "HgN/A
7:30 PM45 °FPassing clouds.14 mph49%30.39 "HgN/A
7:00 PM46 °FPassing clouds.14 mph50%30.39 "HgN/A
6:30 PM45 °FPassing clouds.13 mph53%30.39 "HgN/A
6:00 PM46 °FPassing clouds.15 mph43%30.42 "HgN/A
5:30 PM46 °FPassing clouds.16 mph43%30.42 "HgN/A
5:00 PM46 °FPassing clouds.10 mph37%30.42 "HgN/A
4:30 PM46 °FPassing clouds.12 mph34%30.39 "HgN/A
4:00 PM45 °FPassing clouds.7 mph42%30.39 "HgN/A
3:30 PM46 °FPassing clouds.7 mph34%30.39 "HgN/A
3:00 PM46 °FPassing clouds.7 mph40%30.39 "HgN/A
Weather by CustomWeather, © 2014

See weather overviewHow to use our weather pages